This is the latest recevied weather packets stored in our database for station/object K0CVS. If no packets are shown the sender has not sent any weather packets the latest 10 day(s).
| Time | Temp. | Humidity | Pressure | Rain* | Wind** | Luminosity | Snow |
|---|---|---|---|---|---|---|---|
| 1778092009 | 13.89° C | 36% | 1019.4 hPa | 0 mm | - | 379 W/m² | - |
| 1778091706 | 13.89° C | 34% | 1019.4 hPa | 0 mm | - | 339 W/m² | - |
| 1778091404 | 13.33° C | 36% | 1019.5 hPa | 0 mm | - | 294 W/m² | - |
| 1778091100 | 13.33° C | 38% | 1019.5 hPa | 0 mm | - | 416 W/m² | - |
| 1778090798 | 12.78° C | 40% | 1019.3 hPa | 0 mm | - | 227 W/m² | - |
| 1778090494 | 12.78° C | 37% | 1019.6 hPa | 0 mm | - | 187 W/m² | - |
| 1778090191 | 12.78° C | 39% | 1019.5 hPa | 0 mm | - | 184 W/m² | - |
| 1778089887 | 12.78° C | 37% | 1019.6 hPa | 0 mm | - | 180 W/m² | - |
| 1778089585 | 12.78° C | 38% | 1019.5 hPa | 0 mm | - | 178 W/m² | - |
| 1778089281 | 12.78° C | 36% | 1019.6 hPa | 0 mm | - | 186 W/m² | - |
| 1778088979 | 13.33° C | 38% | 1019.7 hPa | 0 mm | - | 168 W/m² | - |
| 1778088676 | 13.33° C | 38% | 1019.8 hPa | 0 mm | - | 168 W/m² | - |
| 1778088373 | 13.33° C | 38% | 1019.3 hPa | 0 mm | - | 208 W/m² | - |
| 1778088069 | 12.78° C | 38% | 1019.5 hPa | 0 mm | - | 236 W/m² | - |
| 1778087767 | 12.78° C | 38% | 1019.4 hPa | 0 mm | - | 292 W/m² | - |
| 1778087464 | 13.33° C | 38% | 1019.6 hPa | 1.78 mm | - | 242 W/m² | - |
| 1778087161 | 13.89° C | 35% | 1019.6 hPa | 1.78 mm | - | 358 W/m² | - |
| 1778086859 | 13.33° C | 36% | 1019.6 hPa | 0 mm | - | 410 W/m² | - |
| 1778086558 | 13.33° C | 37% | 1019.6 hPa | 0 mm | - | 294 W/m² | - |
| 1778086253 | 13.33° C | 35% | 1019.7 hPa | 0 mm | - | 399 W/m² | - |
| 1778085951 | 13.33° C | 36% | 1019.7 hPa | 0 mm | - | 327 W/m² | - |
| 1778085648 | 13.33° C | 37% | 1019.5 hPa | 0 mm | - | 463 W/m² | - |
| 1778085343 | 13.33° C | 41% | 1019.6 hPa | 0 mm | - | 332 W/m² | - |
| 1778085039 | 12.78° C | 40% | 1019.5 hPa | 0 mm | - | 360 W/m² | - |
| 1778084736 | 12.78° C | 38% | 1019.6 hPa | 0 mm | - | 322 W/m² | - |
* Rain latest hour (hover to see other rain measurements)
** Current wind speed in m/s (hover to see current wind gust speed)